319  
ASUS41 KBGM 231010  
RWRBGM  
 
REGIONAL WEATHER ROUNDUP  
NATIONAL WEATHER SERVICE BINGHAMTON NY  
600 AM EDT WED MAY 23 2018  
 
NOTE: "FAIR" INDICATES FEW OR NO CLOUDS BELOW 12,000 FEET WITH NO  
SIGNIFICANT WEATHER AND/OR S TO VISIBILITY
.  
 
* = STATION(S) THAT DOES NOT REPORT PRECIPITATION, SUCH AS RAIN,  
SNOW, ETC, ALSO NO THUNDER OR FOG.
 
 
NYZ009-015>018-022>025-036-037-044>046-055>057-062-231100   
..CENTRAL NEW YORK
 
 
 
CITY SKY/WX TMP DP RH WIND PRES REMARKS
 
BINGHAMTON CLOUDY 56 55 97 NW9 29.95R  
CORTLAND CLOUDY 54 54 100 N5 29.98R  
DANSVILLE CLOUDY 59 56 89 NW3 30.01R  
ELMIRA CLOUDY 60 59 96 E6 29.97R  
ITHACA CLOUDY 56 55 97 NW8 29.99R FOG  
MONTICELLO NOT AVBL  
PENN YAN CLOUDY 58 54 86 N3 30.00R  
ROME NOT AVBL  
SIDNEY CLOUDY 55 55 100 CALM 29.95R FOG  
SYRACUSE CLOUDY 55 55 100 W5 29.97R  

 
 
PAZ038>040-043-044-047-048-072-231100   
..NORTHEAST PENNSYLVANIA
 
 
 
CITY SKY/WX TMP DP RH WIND PRES REMARKS
 
HAZLETON CLOUDY 61 59 94 W5 29.97R FOG  
SCRANTON FOG 60 60 100 N6 29.93R VSB 1/4  

 

 
KEY  
WCI = WIND CHILL INDEX  
VSB = VISIBILITY  
HX = HEAT INDEX  

 
 
 
CLICK HERE TO GO TO PREVIOUS BULLETINS.

The Nexlab NY Page
The Nexlab PA Page Main Text Page